User: anonymous   Login
Location: Elstree
(51.6403°N, 0.2969°W)
Time: 14:33:51
(UTC+00:00)
Language:

Cosmos 2366 rocket - Orbit

View from above orbital plane
View from above orbital plane
View from above satellite
View from above satellite

Ground track
Ground track

The orbit data is extracted from the following two-line orbital elements,

1 25893U 99045B   21127.25631691  .00000047  00000-0  31670-4 0  9992
2 25893  82.9296  47.4183 0030035  83.9259  26.2677 13.76549944 90011
Epoch (UTC): 07 May 2021 06:09:05
Eccentricity: 0.0030035
inclination: 82.9296°
perigee height: 954 km
apogee height: 998 km
right ascension of ascending node: 47.4183°
argument of perigee: 83.9259°
revolutions per day: 13.76549944
mean anomaly at epoch: 26.2677°
orbit number at epoch: 9001

The dashed part of the orbit path shows where the satellite is in the earth's shadow,  

DLR